Voltar ao catálogo

STARLINK-35842

AtivoComunicaçõesVLEO
NORAD 67087·PAYLOAD·🇺🇸 United States

Lançado Dec 14, 2025 de Vandenberg Space Force Base

Loading…

Próximas Passagens (próximas 24 horas)

TLE

AtualizadoSource: CelesTrak SupGP

Época: Sep 15, 2026, 03:42 UTC

1 67087C 25298N   26258.15465278 -.00042526  00000+0 -35646-2 0  2589
2 67087  69.9992 256.7112 0003852 267.9670 271.2859 14.98341292    11

Acompanhe STARLINK-35842 em tempo real com AllMySat

Download on the App Store